• En España
  • Lista de países
  • Para 7 días
  • Temperatura del agua
  • Mapa Satelital
  • El tiempo en el mapa
  • Informadores
  • user-avatar
    Iniciar sesión

    Tiempo cada hora Kommuna

    Hoy, 24 Octubre, Miércoles

    Tiempo Temperatura Precipitaciones Viento Presión Humedad
    00:00 +3°C° 0 mm 2 mps 731 mmHg 88%
    01:00 +3°C° 0 mm 2 mps 731 mmHg 89%
    02:00 +3°C° 0 mm 2 mps 730 mmHg 89%
    03:00 +3°C° 0 mm 2 mps 730 mmHg 89%
    04:00 +3°C° 0 mm 2 mps 729 mmHg 89%
    05:00 +3°C° 0 mm 2 mps 729 mmHg 89%
    06:00 +2°C° 0.2 mm 3 mps 728 mmHg 89%
    07:00 +2°C° 0.2 mm 3 mps 728 mmHg 89%
    08:00 +2°C° 0.2 mm 3 mps 728 mmHg 89%
    09:00 +3°C° 0.4 mm 3 mps 728 mmHg 87%
    10:00 +4°C° 0.4 mm 2 mps 728 mmHg 86%
    11:00 +4°C° 0.4 mm 2 mps 728 mmHg 85%
    12:00 +5°C° 0.3 mm 2 mps 728 mmHg 84%
    13:00 +5°C° 0.3 mm 2 mps 728 mmHg 83%
    14:00 +5°C° 0.3 mm 2 mps 728 mmHg 82%
    15:00 +5°C° 0.1 mm 2 mps 728 mmHg 85%
    16:00 +4°C° 0.1 mm 2 mps 728 mmHg 87%
    17:00 +4°C° 0.1 mm 2 mps 728 mmHg 90%
    18:00 +3°C° 0.1 mm 2 mps 728 mmHg 91%
    19:00 +3°C° 0.1 mm 2 mps 728 mmHg 92%
    20:00 +3°C° 0.1 mm 2 mps 728 mmHg 93%
    21:00 +3°C° 0 mm 2 mps 728 mmHg 93%
    22:00 +3°C° 0 mm 2 mps 728 mmHg 94%
    23:00 +2°C° 0 mm 2 mps 728 mmHg 94%

    Mañana, 25 Octubre, Jueves

    Tiempo Temperatura Precipitaciones Viento Presión Humedad
    00:00 +2°C° 0.1 mm 3 mps 728 mmHg 93%
    01:00 +2°C° 0.1 mm 3 mps 728 mmHg 92%
    02:00 +2°C° 0.1 mm 3 mps 728 mmHg 91%
    03:00 +2°C° 0.1 mm 3 mps 728 mmHg 91%
    04:00 +2°C° 0.1 mm 3 mps 728 mmHg 90%
    05:00 +2°C° 0.1 mm 3 mps 728 mmHg 89%
    06:00 +2°C° 0 mm 3 mps 728 mmHg 88%
    07:00 +1°C° 0 mm 3 mps 728 mmHg 88%
    08:00 +1°C° 0 mm 3 mps 728 mmHg 87%
    09:00 +2°C° 0 mm 3 mps 729 mmHg 84%
    10:00 +2°C° 0 mm 3 mps 729 mmHg 81%
    11:00 +2°C° 0 mm 3 mps 729 mmHg 79%
    12:00 +3°C° 0 mm 3 mps 729 mmHg 77%
    13:00 +3°C° 0 mm 3 mps 729 mmHg 75%
    14:00 +3°C° 0 mm 3 mps 729 mmHg 74%
    15:00 +2°C° 0 mm 3 mps 729 mmHg 76%
    16:00 +2°C° 0 mm 3 mps 729 mmHg 79%
    17:00 +2°C° 0 mm 3 mps 729 mmHg 81%
    18:00 +1°C° 0 mm 3 mps 729 mmHg 82%
    19:00 +1°C° 0 mm 3 mps 729 mmHg 82%
    20:00 +1°C° 0 mm 3 mps 729 mmHg 83%
    21:00 0°C° 0 mm 3 mps 729 mmHg 84%
    22:00 0°C° 0 mm 3 mps 729 mmHg 86%
    23:00 0°C° 0 mm 3 mps 729 mmHg 87%

    Pasado mañana, 26 Octubre, Viernes

    Tiempo Temperatura Precipitaciones Viento Presión Humedad
    00:00 -1°C° 0 mm 3 mps 729 mmHg 89%
    01:00 -1°C° 0 mm 3 mps 729 mmHg 91%
    02:00 -1°C° 0 mm 3 mps 729 mmHg 92%
    03:00 -1°C° 0 mm 3 mps 729 mmHg 92%
    04:00 -1°C° 0 mm 3 mps 729 mmHg 92%
    05:00 -1°C° 0 mm 3 mps 729 mmHg 92%
    06:00 -2°C° 0 mm 4 mps 729 mmHg 90%
    07:00 -1°C° 0 mm 4 mps 730 mmHg 89%
    08:00 -1°C° 0 mm 4 mps 730 mmHg 87%
    09:00 -1°C° 0 mm 4 mps 730 mmHg 85%
    10:00 -1°C° 0 mm 4 mps 730 mmHg 83%
    11:00 0°C° 0 mm 4 mps 731 mmHg 82%
    12:00 0°C° 0 mm 4 mps 731 mmHg 81%
    13:00 0°C° 0 mm 4 mps 731 mmHg 79%
    14:00 0°C° 0 mm 4 mps 732 mmHg 78%
    15:00 0°C° 0 mm 4 mps 732 mmHg 78%
    16:00 0°C° 0 mm 4 mps 732 mmHg 78%
    17:00 0°C° 0 mm 4 mps 733 mmHg 77%
    18:00 +1°C° 0 mm 3 mps 733 mmHg 79%
    19:00 0°C° 0 mm 3 mps 733 mmHg 82%
    20:00 0°C° 0 mm 3 mps 734 mmHg 84%
    21:00 -1°C° 0 mm 3 mps 734 mmHg 86%
    22:00 -1°C° 0 mm 3 mps 734 mmHg 89%
    23:00 -1°C° 0 mm 3 mps 734 mmHg 91%

    27 Octubre, Sábado

    Tiempo Temperatura Precipitaciones Viento Presión Humedad
    00:00 -1°C° 0 mm 3 mps 735 mmHg 92%
    01:00 -1°C° 0 mm 3 mps 735 mmHg 93%
    02:00 -1°C° 0 mm 3 mps 735 mmHg 94%
    03:00 -1°C° 0 mm 2 mps 735 mmHg 94%
    04:00 -1°C° 0 mm 2 mps 735 mmHg 94%
    05:00 -1°C° 0 mm 2 mps 735 mmHg 94%
    06:00 +1°C° 0 mm 2 mps 734 mmHg 93%
    07:00 0°C° 0 mm 3 mps 734 mmHg 91%
    08:00 0°C° 0 mm 3 mps 733 mmHg 90%
    09:00 0°C° 0.6 mm 3 mps 733 mmHg 88%
    10:00 0°C° 0.6 mm 4 mps 732 mmHg 87%
    11:00 0°C° 0.6 mm 4 mps 731 mmHg 85%
    12:00 +1°C° 1.3 mm 4 mps 730 mmHg 86%
    13:00 +1°C° 1.3 mm 4 mps 729 mmHg 88%
    14:00 +1°C° 1.3 mm 4 mps 728 mmHg 89%
    15:00 +2°C° 1.5 mm 3 mps 727 mmHg 91%
    16:00 +2°C° 1.5 mm 3 mps 727 mmHg 93%
    17:00 +3°C° 1.5 mm 2 mps 727 mmHg 95%
    18:00 +2°C° 0.4 mm 3 mps 727 mmHg 95%
    19:00 +2°C° 0.4 mm 3 mps 727 mmHg 95%
    20:00 +2°C° 0.4 mm 3 mps 728 mmHg 95%
    21:00 0°C° 0.5 mm 4 mps 729 mmHg 93%
    22:00 0°C° 0.5 mm 5 mps 730 mmHg 91%
    23:00 0°C° 0.5 mm 5 mps 731 mmHg 89%

    28 Octubre, Domingo

    Tiempo Temperatura Precipitaciones Viento Presión Humedad
    00:00 0°C° 0.4 mm 5 mps 733 mmHg 88%
    01:00 -1°C° 0.4 mm 5 mps 735 mmHg 87%
    02:00 -1°C° 0.4 mm 5 mps 736 mmHg 86%
    03:00 -1°C° 0.1 mm 5 mps 737 mmHg 87%
    04:00 -2°C° 0.1 mm 4 mps 739 mmHg 87%
    05:00 -2°C° 0.1 mm 4 mps 740 mmHg 88%
    06:00 -2°C° 0 mm 4 mps 741 mmHg 89%
    07:00 -1°C° 0 mm 3 mps 742 mmHg 90%
    08:00 -1°C° 0 mm 3 mps 743 mmHg 91%
    09:00 -1°C° 0.1 mm 3 mps 744 mmHg 89%
    10:00 0°C° 0.1 mm 3 mps 745 mmHg 88%
    11:00 0°C° 0.1 mm 3 mps 746 mmHg 86%
    12:00 0°C° 0.1 mm 3 mps 747 mmHg 85%
    13:00 0°C° 0.1 mm 3 mps 747 mmHg 84%
    14:00 +1°C° 0.1 mm 3 mps 748 mmHg 83%
    15:00 0°C° 0 mm 3 mps 749 mmHg 85%
    16:00 -1°C° 0 mm 3 mps 750 mmHg 88%
    17:00 -2°C° 0 mm 2 mps 750 mmHg 90%
    18:00 -2°C° 0 mm 2 mps 751 mmHg 91%
    19:00 -2°C° 0 mm 2 mps 752 mmHg 92%
    20:00 -3°C° 0 mm 2 mps 752 mmHg 93%
    21:00 -3°C° 0 mm 2 mps 753 mmHg 94%
    22:00 -3°C° 0 mm 2 mps 753 mmHg 94%
    23:00 -2°C° 0 mm 1 mps 754 mmHg 95%

    29 Octubre, Lunes

    Tiempo Temperatura Precipitaciones Viento Presión Humedad
    00:00 -2°C° 0 mm 1 mps 754 mmHg 95%
    01:00 -2°C° 0 mm 1 mps 755 mmHg 95%
    02:00 -3°C° 0 mm 1 mps 755 mmHg 95%
    03:00 -3°C° 0 mm 1 mps 756 mmHg 95%
    04:00 -3°C° 0 mm 1 mps 756 mmHg 95%
    05:00 -3°C° 0 mm 1 mps 756 mmHg 95%
    06:00 -3°C° 0 mm 1 mps 756 mmHg 93%
    07:00 -2°C° 0 mm 1 mps 757 mmHg 91%
    08:00 -2°C° 0 mm 1 mps 757 mmHg 90%
    09:00 -1°C° 0 mm 1 mps 757 mmHg 86%
    10:00 -1°C° 0 mm 0 mps 758 mmHg 82%
    11:00 0°C° 0 mm 0 mps 758 mmHg 79%
    12:00 0°C° 0 mm 0 mps 758 mmHg 78%
    13:00 0°C° 0 mm 0 mps 758 mmHg 77%
    14:00 0°C° 0 mm 0 mps 758 mmHg 77%
    15:00 -1°C° 0 mm 0 mps 758 mmHg 80%
    16:00 0°C° 0 mm 1 mps 758 mmHg 84%
    17:00 -1°C° 0 mm 1 mps 758 mmHg 87%
    18:00 -1°C° 0 mm 1 mps 759 mmHg 88%
    19:00 -1°C° 0 mm 1 mps 759 mmHg 89%
    20:00 -3°C° 0 mm 2 mps 759 mmHg 90%
    21:00 -3°C° 0 mm 2 mps 759 mmHg 89%
    22:00 -3°C° 0 mm 2 mps 759 mmHg 88%
    23:00 -3°C° 0 mm 2 mps 759 mmHg 87%

    30 Octubre, Martes

    Tiempo Temperatura Precipitaciones Viento Presión Humedad
    00:00 -4°C° 0 mm 3 mps 759 mmHg 86%
    01:00 -4°C° 0 mm 3 mps 759 mmHg 85%
    02:00 -4°C° 0 mm 3 mps 760 mmHg 84%
    03:00 -4°C° 0 mm 4 mps 760 mmHg 83%
    04:00 -4°C° 0 mm 4 mps 760 mmHg 83%
    05:00 -4°C° 0 mm 4 mps 760 mmHg 82%
    06:00 -4°C° 0 mm 4 mps 760 mmHg 81%
    07:00 -5°C° 0 mm 5 mps 760 mmHg 80%
    08:00 -5°C° 0 mm 5 mps 760 mmHg 79%
    09:00 -4°C° 0 mm 5 mps 760 mmHg 77%
    10:00 -4°C° 0 mm 5 mps 761 mmHg 75%
    11:00 -2°C° 0 mm 5 mps 761 mmHg 72%
    12:00 -2°C° 0 mm 5 mps 761 mmHg 71%
    13:00 -2°C° 0 mm 5 mps 761 mmHg 69%
    14:00 -2°C° 0 mm 5 mps 762 mmHg 67%
    15:00 -4°C° 0 mm 5 mps 762 mmHg 68%
    16:00 -5°C° 0 mm 5 mps 762 mmHg 69%
    17:00 -5°C° 0 mm 5 mps 762 mmHg 70%
    18:00 -5°C° 0 mm 5 mps 762 mmHg 72%
    19:00 -5°C° 0 mm 5 mps 763 mmHg 74%
    20:00 -6°C° 0 mm 5 mps 763 mmHg 77%
    21:00 -6°C° 0 mm 5 mps 763 mmHg 78%
    22:00 -6°C° 0 mm 5 mps 764 mmHg 79%
    23:00 -6°C° 0 mm 5 mps 764 mmHg 79%
    Mostrar más